Location: Piolenc
(44.1794°N, 4.7641°E)
Time: 04:10:42
(UTC+00:00)

ALOS - Pass Details

Date: 27 January 2021
Orbit: 682 x 685 km, 97.9° (Epoch: 27 February)

Event Time Altitude Azimuth Distance (km) Brightness Sun altitude
Rises 04:34:44 0° 8° (N) 3,057 5.7 -26.7°
Reaches altitude 10° 04:37:01 10° 4° (N) 2,136 4.8 -26.3°
Enters shadow 04:37:50 15° 1° (N) 1,819 4.4 -26.2°
